Погода в Львове

Поиск расширенной информации на нашем сайте:

Полезная информация:

Новости сайта



14.11.2019
Обновлён Долгосрочный прогноз погоды по России и другим странам хСССР на ноябрь-декабрь 2019 года.
Опубликованы прогностические карты: Предварительный прогноз на декабрь 2019 года, Предварительный прогноз на январь 2020 года, Предварительная схема синоптических процессов на декабрь 2019 г..

11.11.2019
Обновлены Долгосрочный прогноз погоды по России и другим странам хСССР на ноябрь-декабрь 2019 года и Предварительный прогноз на зиму 2019/2020 годов

04.11.2019
Опубликован Долгосрочный прогноз погоды по России и другим странам хСССР на ноябрь 2019 года
Сравнение прогнозируемой аномалии приземной температуры воздуха на ноябрь 2019 года по разным моделям
Предварительный прогноз на зиму 2019/2020 года




Погода в Львове - сегодня

Время (UTC), дата Ветер
(°,м/с) 
Видим.   Явления Облачность Т
(°С)
Тd
(°С)
f(%) Тe
(°С)
Pmin
(гПа)
dP
(гПа)
Po
(мм)
O2
(г/м3)
Тmin Tmax R s Состояние
почвы
00 18.11.19 140 (ЮВ) 10 км    8/8 300 м 
[St]
+9.7 +7.6 87 +8  1017.4  -0.8  734  284           
03 18.11.19 140 (ЮВ) 9000 м  дымка  10/10 240 м 
[St]
+9.1 +7.9 92 +8  1016.9  -0.6  734  285           
06 18.11.19 140 (ЮВ) 7000 м  дымка  10/10 210 м 
[St]
+8.6 +7.6 93 +7  1017  0.1  734  285           
09 18.11.19 140 (ЮВ) 8000 м  дымка  10/10 270 м 
[St]
+8.8 +7.3 90 +7  1017.1  0.1  734  285           
12 18.11.19 140 (ЮВ) 10 км    8/8 400 м 
[Sc]
+9.5 +6.3 80 +8  1016.5  -0.5  733  285           
15 18.11.19 140 (ЮВ) 7000 м  дымка  8/0 средняя, верхняя 
[Ac trans|Ci fib]
+8.6 +6.2 85 +8  1017.2  0.5  734  286           
18 18.11.19 150 (ЮВ) 9000 м  дымка  8/0 средняя 
[Ac trans]
+9.1 +7.4 89 +9  1018.7  1.5  735  285    +10       
21 18.11.19 150 (ЮВ) 8000 м  дымка  8/0 средняя 
[Ac trans]
+8.3 +7 92 +8  1020  1.2  736  287           
00 19.11.19 160 (Ю) 6000 м  дымка  8/0 верхняя 
[Ci fib]
+7 +6.1 94 +7  1022.2  1.9  737  289           
03 19.11.19 150 (ЮВ) 6000 м  дымка  8/0 верхняя 
[Ci fib]
+5.3 +4.1 92 +6  1023.4  0.9  738  291           
06 19.11.19 тихо ()   7000 м  дымка  8/0 верхняя 
[Ci fib]
+1.3 +0.5 94 +1  1025.6  1.5  739  296  +1.1         
09 19.11.19 160 (Ю) 10 км    4/0 верхняя 
[Ci fib]
+12.4 +5.9 64 +13  1024.9  0.9  740  284           
12 19.11.19 140 (ЮВ) 10 км    4/0 верхняя 
[Ci fib]
+15.1 +4.2 48 +16  1023.4  -1.1  739  281           
15 19.11.19 100 (В) 10 км    4/0 верхняя 
[Ci fib]
+10.6 +4.7 67 +12  1024.1  0.1  739  286           
18 19.11.19 тихо ()   10 км    3/0 верхняя 
[Ci fib]
+5.2 +3 86 +5  1025  0.1  739  292    +15.4       
21 19.11.19 140 (ЮВ) 1300 м  дымка  10/10 60 м 
[St]
+8.6 +8 96 +8  1024.5  739  287           
00 20.11.19 130 (ЮВ) 1200 м  в посл. час туман  10/10 60 м 
[St]
+8 +7.6 97 +8  1024.3  -0.2  739  288           
03 20.11.19 110 (В) 2500 м  дымка{туман}  10/10 60 м 
[St]
+8.5 +7.5 93 +8  1023.5  -0.7  738  287           
06 20.11.19 110 (В) 7000 м  дымка{туман}  10/10 240 м 
[St]
+9.7 +8.5 92 +9  1023.2  -0.2  738  286  +5.2         
09 20.11.19 100 (В) 8000 м  дымка  10/10 270 м 
[St]
+11.4 +9 85 +11  1022.5  -0.4  738  284           
12 20.11.19 120 (ЮВ) 10 км    10/10 750 м 
[Sc]
+12.3 +8.5 78 +12  1021  -1.3  737  283           
15 20.11.19 110 (В) 10 км    10/10 450 м 
[Sc]
+11.5 +7.8 78 +11  1020.7  -0.4  737  283           
18 20.11.19 130 (ЮВ) 10 км  в посл. час морось  10/10 300 м 
[Sc]
+11 +8.6 85 +10  1020.5  -0.3  736  284    +12.6  0.0     
21 20.11.19 120 (ЮВ) 10 км    10/10 500 м 
[Sc]
+10.5 +7.6 82 +9  1020.6  736  284           
00 21.11.19 140 (ЮВ) 10 км    10/10 480 м 
[Sc]
+10.1 +7 81 +8  1020.4  -0.2  736  285           
Время (UTC), дата Ветер
(°,м/с) 
Видим.   Явления Облачность Т
(°С)
Тd
(°С)
f(%) Тe
(°С)
Pmin
(гПа)
dP
(гПа)
Po
(мм)
O2
(г/м3)
Тmin Tmax R s Состояние
почвы

Для получения пояснительной информации подведите курсор к названию столбца.

ПОГОДА в Львове - архив

Всё, что Вы хотите узнать о погоде в Львове - удобно и подробно!

Выберите нужную дату (начиная с 1 января 2019* года) и нажмите кнопку "Найти".
Будут отображены архивные сводки погоды по пункту Львов, начиная с указанной даты.


Отображать данные в формате CSV (для использования в таблицах Excel)


Внимание! Наш архив погоды предназначен исключительно для личного некоммерческого использования в познавательных целях. Если Вам необходимы официальные справки о состоянии погоды (для производственных, юридических, коммерческих и т.п. целей), обращайтесь в органы Росгидромета.

*Примечание: данная дата относится к архиву по метеостанциям СССР (Россия, СНГ, Балтия).
Архив по метеостанциям Зарубежной Европы и Азии (кроме Китая) хранится 10 дней, по другим регионам земного шара (Китай, Африка, Америка, Австралия, Океания) - 1 день.

Львов - район местоположения метеостанции


Название, широта, долгота, высота метеостанции:
Львов 49.8°ш. 23.9°д. 323 м над ур. моря [Украина]

Дополнительная информация

В oтличие oт бoльшинства пoгoдных сайтoв мы публикуем пoдрoбную метеoинфoрмацию в детальнoм прoфессиoнальнoм фoрмате.

Характеристики температуры и влажнoсти вoздуха измеряются на высoте 2 м в тени вдали oт зданий и деревьев.
Скoрoсть ветра измеряется на высoте 10 м (на урoвне рoста челoвека скoрoсть ветра ниже в 1.5-2 раза). Если метеoстанция нахoдится в гoрoде или в лесу, тo скoрoсть ветра занижена на 2-4 м/с пo сравнению с oткрытым местoм. Скoрoсть ветра над акватoриями крупных рек и oзёр, а также на вершинах хoлмoв на 2-5 м/с выше, чем в oбычных услoвиях.
Атмoсфернoе давление в разных тoчках местнoсти мoжет значительнo oтличаться oт давления на метеoстанции, в зависимoсти oт услoвий рельефа (при пoдъёме на 10 м давление пoнижается примернo на 1 мм рт.ст.).